Ely, MN

5:57 AM CST on February 22, 2017 (GMT -0600)
Ely Municipal

Weather History for KELO - August, 2013

Change the Weather History Date:

Friday, August 9, 2013

  Actual Average Record
Temperature  
Mean Temperature 55 °F -  
Max Temperature 64 °F 72 °F 84 °F (2010)
Min Temperature 46 °F 51 °F 46 °F (1996)
Degree Days  
Heating Degree Days 10    
Growing Degree Days 5 (Base 50)    
Moisture  
Dew Point 49 °F    
Average Humidity 80    
Maximum Humidity 100    
Minimum Humidity 59    
Precipitation  
Precipitation 0.00 in - - ()
Sea Level Pressure  
Sea Level Pressure 29.99 in    
Wind  
Wind Speed 5 mph (West)    
Max Wind Speed 16 mph    
Max Gust Speed 23 mph    
Visibility 10 miles    
Events Rain    
Averages and records for this station are not official NWS values.
T = Trace of Precipitation, MM = Missing Value Source: NWS Daily Summary

Daily Weather History Graph

Daily Weather History Graph

Search for Another Location

Airport or City:

Trip Planner

Search our weather history database for the weather conditions in past years. The results will help you decide how hot, cold, wet, or windy it might be!

Date:

Astronomy

Aug. 09, 2013 Rise Set
Actual Time 5:54 AM CDT 8:29 PM CDT
Civil Twilight 5:19 AM CDT 9:04 PM CDT
Nautical Twilight 4:35 AM CDT 9:48 PM CDT
Astronomical Twilight 3:44 AM CDT 10:39 PM CDT
Moon 8:58 AM CDT (8/9) 9:20 PM CDT (8/9)
Length of Visible Light 15h 44m
Length of Day
14h 34m
Waxing Crescent, 8% of the Moon is Illuminated
Aug 9
Waxing Crescent
Aug 14
First Quarter
Aug 20
Full
Aug 28
Last Quarter
Sep 5
New

Hourly Weather History & Observations

Time (CDT) Temp. Dew Point Humidity Pressure Visibility Wind Dir Wind Speed Gust Speed Precip Events Conditions
12:13 AM 48.2 °F 46.4 °F 93% 29.95 in 10.0 mi Calm Calm - N/A   Clear
12:33 AM 46.4 °F 44.6 °F 93% 29.95 in 10.0 mi Calm Calm - N/A   Clear
12:52 AM 48.2 °F 46.4 °F 93% 29.95 in 10.0 mi WSW 3.5 mph - N/A   Clear
1:13 AM 50.0 °F 48.2 °F 94% 29.95 in 10.0 mi WSW 4.6 mph - N/A   Clear
1:33 AM 50.0 °F 48.2 °F 94% 29.95 in 10.0 mi WSW 4.6 mph - N/A   Clear
1:52 AM 50.0 °F 48.2 °F 94% 29.95 in 10.0 mi WSW 5.8 mph - N/A   Clear
2:13 AM 50.0 °F 48.2 °F 94% 29.95 in 10.0 mi WSW 5.8 mph - N/A   Clear
2:32 AM 50.0 °F 48.2 °F 94% 29.94 in 10.0 mi WSW 5.8 mph - N/A   Clear
2:53 AM 48.2 °F 48.2 °F 100% 29.94 in 10.0 mi WSW 4.6 mph - N/A   Clear
3:13 AM 48.2 °F 46.4 °F 93% 29.94 in 10.0 mi WSW 4.6 mph - N/A   Clear
3:32 AM 48.2 °F 46.4 °F 93% 29.94 in 10.0 mi WSW 5.8 mph - N/A   Clear
3:53 AM 48.2 °F 46.4 °F 93% 29.94 in 10.0 mi WSW 5.8 mph - N/A   Clear
4:13 AM 48.2 °F 46.4 °F 93% 29.94 in 10.0 mi WSW 5.8 mph - N/A   Clear
4:32 AM 48.2 °F 46.4 °F 93% 29.93 in 10.0 mi WSW 5.8 mph - N/A   Clear
4:53 AM 48.2 °F 46.4 °F 93% 29.93 in 10.0 mi WSW 4.6 mph - N/A   Clear
5:13 AM 48.2 °F 46.4 °F 93% 29.93 in 10.0 mi WSW 6.9 mph - N/A   Clear
5:32 AM 48.2 °F 46.4 °F 93% 29.93 in 10.0 mi WSW 4.6 mph - N/A   Clear
5:53 AM 48.2 °F 44.6 °F 87% 29.93 in 10.0 mi WSW 5.8 mph - N/A   Clear
6:13 AM 48.2 °F 44.6 °F 87% 29.93 in 10.0 mi WSW 5.8 mph - N/A   Clear
6:32 AM 48.2 °F 46.4 °F 93% 29.93 in 10.0 mi West 3.5 mph - N/A   Scattered Clouds
6:53 AM 48.2 °F 46.4 °F 93% 29.93 in 10.0 mi WSW 6.9 mph - N/A   Mostly Cloudy
7:13 AM 50.0 °F 46.4 °F 87% 29.93 in 10.0 mi West 5.8 mph - N/A   Clear
7:32 AM 51.8 °F 48.2 °F 88% 29.93 in 10.0 mi WSW 5.8 mph - N/A   Clear
7:53 AM 53.6 °F 48.2 °F 82% 29.93 in 10.0 mi West 8.1 mph - N/A   Clear
8:13 AM 55.4 °F 50.0 °F 82% 29.94 in 10.0 mi West 8.1 mph - N/A   Clear
8:32 AM 57.2 °F 50.0 °F 77% 29.94 in 10.0 mi West 6.9 mph - N/A   Clear
8:53 AM 57.2 °F 50.0 °F 77% 29.94 in 10.0 mi WNW 12.7 mph 19.6 mph N/A   Scattered Clouds
9:13 AM 57.2 °F 48.2 °F 72% 29.94 in 10.0 mi West 12.7 mph 23.0 mph N/A   Mostly Cloudy
9:32 AM 59.0 °F 48.2 °F 67% 29.95 in 10.0 mi WNW 15.0 mph 23.0 mph N/A   Overcast
9:53 AM 60.8 °F 50.0 °F 68% 29.95 in 10.0 mi NW 9.2 mph 16.1 mph N/A   Mostly Cloudy
10:13 AM 59.0 °F 48.2 °F 67% 29.95 in 10.0 mi NW 16.1 mph 23.0 mph N/A   Mostly Cloudy
10:32 AM 60.8 °F 48.2 °F 63% 29.95 in 10.0 mi WNW 13.8 mph 20.7 mph N/A   Mostly Cloudy
10:53 AM 59.0 °F 48.2 °F 67% 29.96 in 10.0 mi NW 11.5 mph 18.4 mph N/A   Overcast
11:13 AM 57.2 °F 48.2 °F 72% 29.97 in 10.0 mi WNW 11.5 mph 19.6 mph N/A   Overcast
11:33 AM 59.0 °F 50.0 °F 72% 29.97 in 10.0 mi WNW 8.1 mph - N/A   Overcast
11:52 AM 55.4 °F 51.8 °F 88% 29.98 in 5.0 mi NW 5.8 mph - N/A Rain Light Rain
12:13 PM 59.0 °F 51.8 °F 77% 29.98 in 10.0 mi West 8.1 mph - N/A   Overcast
12:33 PM 62.6 °F 48.2 °F 59% 29.98 in 7.0 mi NW 11.5 mph 18.4 mph N/A   Overcast
12:52 PM 60.8 °F 48.2 °F 63% 29.99 in 10.0 mi NW 10.4 mph 16.1 mph N/A   Light Drizzle
1:13 PM 57.2 °F 51.8 °F 82% 30.00 in 10.0 mi North 3.5 mph - N/A   Overcast
1:33 PM 59.0 °F 51.8 °F 77% 30.01 in 7.0 mi NW 11.5 mph 16.1 mph N/A   Overcast
1:52 PM 57.2 °F 53.6 °F 88% 30.01 in 3.0 mi NW 3.5 mph - N/A Rain Light Rain
2:13 PM 59.0 °F 53.6 °F 82% 30.01 in 10.0 mi WNW 8.1 mph - N/A   Overcast
2:33 PM 62.6 °F 53.6 °F 72% 30.00 in 10.0 mi WNW 6.9 mph - N/A   Overcast
2:53 PM 60.8 °F 51.8 °F 72% 30.01 in 10.0 mi WNW 8.1 mph - N/A   Overcast
3:13 PM 60.8 °F 50.0 °F 68% 30.01 in 10.0 mi NW 9.2 mph 18.4 mph N/A   Overcast
3:33 PM 60.8 °F 51.8 °F 72% 30.01 in 10.0 mi NW 8.1 mph - N/A   Overcast
3:52 PM 60.8 °F 51.8 °F 72% 30.02 in 10.0 mi WNW 10.4 mph - N/A   Overcast
4:13 PM 62.6 °F 50.0 °F 63% 30.02 in 10.0 mi WNW 9.2 mph - N/A   Overcast
4:33 PM 62.6 °F 50.0 °F 63% 30.02 in 10.0 mi WNW 10.4 mph 16.1 mph N/A   Overcast
4:53 PM 62.6 °F 50.0 °F 63% 30.02 in 10.0 mi WNW 6.9 mph 19.6 mph N/A   Scattered Clouds
5:13 PM 64.4 °F 50.0 °F 59% 30.02 in 10.0 mi NW 8.1 mph - N/A   Scattered Clouds
5:33 PM 62.6 °F 50.0 °F 63% 30.02 in 10.0 mi WNW 6.9 mph - N/A   Mostly Cloudy
5:53 PM 60.8 °F 50.0 °F 68% 30.02 in 10.0 mi WNW 6.9 mph - N/A   Overcast
6:13 PM 60.8 °F 50.0 °F 68% 30.03 in 10.0 mi West 3.5 mph - N/A   Overcast
6:33 PM 60.8 °F 51.8 °F 72% 30.03 in 10.0 mi NW 5.8 mph - N/A   Overcast
6:53 PM 60.8 °F 51.8 °F 72% 30.03 in 10.0 mi Calm Calm - N/A   Overcast
7:13 PM 60.8 °F 51.8 °F 72% 30.04 in 10.0 mi West 4.6 mph - N/A   Overcast
7:32 PM 60.8 °F 51.8 °F 72% 30.04 in 10.0 mi WNW 5.8 mph - N/A   Overcast
7:53 PM 60.8 °F 51.8 °F 72% 30.05 in 10.0 mi WNW 5.8 mph - N/A   Overcast
8:13 PM 59.0 °F 51.8 °F 77% 30.06 in 10.0 mi WNW 3.5 mph - N/A   Overcast
8:32 PM 59.0 °F 51.8 °F 77% 30.06 in 10.0 mi WNW 3.5 mph - N/A   Overcast
8:53 PM 57.2 °F 51.8 °F 82% 30.07 in 10.0 mi West 3.5 mph - N/A   Overcast
9:13 PM 57.2 °F 51.8 °F 82% 30.07 in 10.0 mi West 4.6 mph - N/A   Overcast
9:32 PM 57.2 °F 51.8 °F 82% 30.08 in 10.0 mi WNW 4.6 mph - N/A   Overcast
9:53 PM 57.2 °F 51.8 °F 82% 30.08 in 10.0 mi WNW 3.5 mph - N/A   Overcast
10:13 PM 57.2 °F 51.8 °F 82% 30.08 in 10.0 mi West 3.5 mph - N/A   Overcast
10:32 PM 57.2 °F 51.8 °F 82% 30.08 in 10.0 mi West 4.6 mph - N/A   Overcast
10:53 PM 55.4 °F 51.8 °F 88% 30.08 in 10.0 mi WNW 3.5 mph - N/A   Scattered Clouds
11:13 PM 55.4 °F 51.8 °F 88% 30.09 in 10.0 mi West 3.5 mph - N/A   Clear
11:32 PM 53.6 °F 51.8 °F 94% 30.10 in 10.0 mi WSW 3.5 mph - N/A   Scattered Clouds
11:53 PM 53.6 °F 51.8 °F 94% 30.10 in 10.0 mi Calm Calm - N/A   Overcast